Караван

Kyrgyzstan     41˚30′00″N   71˚45′00″E
temp.,
°C
wind,
m/s
gust,
m/s
humid.,
%
clouds,
%
prec.,
mm/h
press.,
hPa
HPBL,
m
3 december, thu
thu300:00−1˚nne238093 0.0 102722
03:00−2˚nne228094 0.0 102721
06:00−2˚n238092 0.0 102822
09:00−1˚n238492 0.0 102727
12:00+1˚nne2210087 0.1 102741
15:00+1˚nne2210080 0.0 102671
18:00nne229488 0.1 102752
21:00−1˚n2289100 0.0 102724
4 december, fri
fri400:00n2288100 0.1 102627
03:00−1˚nne0088100 0.1 102521
06:00−1˚nnw1191100 0.2 102622
09:00−1˚nw1197100 0.5 102635
12:00sse11100100 2.9 1026103
15:00sse23100100 0.9 1025185
18:00−2˚s2399100 1.8 1027163
21:00−3˚sse1199100 1.3 102851
5 december, sat
sat500:00−3˚ese0198100 2.7 102865
03:00−4˚ssw0197100 1.1 102839
06:00−6˚ne0196100 1.9 103051
09:00−7˚n2294100 0.7 103136
12:00−4˚ene1191100 1.2 1030253
15:00−3˚ene118589 0.2 1029355
18:00−7˚n238770 0.3 103022
21:00−8˚n337217 0.0 103131
6 december, sun
sun600:00−8˚n446436 0.0 103133
03:00−8˚n446234 0.0 103132
06:00−7˚n336156 0.0 103129
09:00−6˚n3361100 0.0 103127
12:00−2˚nne237194 0.0 1030165
15:00ne127912 0.0 1028170
18:00−4˚n22706 0.0 102921
21:00−5˚n33635 0.0 102923
7 december, mon
mon700:00−4˚n33604 0.0 102723
03:00−3˚nne335797 0.0 102622
06:00−2˚nne226198 0.0 102421
09:00−2˚nne2261100 0.0 102321
12:00+1˚ne1282100 0.0 102230
15:00+1˚ssw1191100 0.1 102228
18:00−2˚ssw1194100 0.6 102522
21:00−3˚sse0098100 3.2 102725